Weather History for Sedalia, MO

Change the Weather History Date:

Saturday, August 16, 2014

  Actual Average Record
Temperature  
Mean Temperature 78 °F 78 °F  
Max Temperature 85 °F 90 °F 99 °F (2003)
Min Temperature 71 °F 67 °F 41 °F (1992)
Degree Days  
Heating Degree Days 0 0  
Month to date heating degree days 0 0  
Since 1 June heating degree days 0 6  
Since 1 July heating degree days 0 0  
Cooling Degree Days 13 14  
Month to date cooling degree days 163 224  
Year to date cooling degree days 965 1104  
Since 1 June cooling degree days 770 965  
Growing Degree Days 28 (Base 50)    
Moisture  
Dew Point 69 °F    
Average Humidity 79    
Maximum Humidity 93    
Minimum Humidity 65    
Precipitation  
Precipitation 0.60 in 0.11 in 1.05 in (1969)
Month to date precipitation 3.35 1.44  
Year to date precipitation 21.41 25.89  
Sea Level Pressure  
Sea Level Pressure 29.85 in    
Wind  
Wind Speed 11 mph (SW)    
Max Wind Speed 33 mph    
Max Gust Speed 49 mph    
Visibility 6 miles    
Events Rain , Thunderstorm    
T = Trace of Precipitation, MM = Missing Value Source: NWS Daily Summary

Daily Weather History Graph

Daily Weather History Graph

Search for Another Location

Airport:

Trip Planner

Search our weather history database for the weather conditions in past years. The results will help you decide how hot, cold, wet, or windy it might be!

Date:

Astronomy

Aug. 16, 2014 Rise Set
Actual Time 6:27 AM CDT 8:05 PM CDT
Civil Twilight 5:59 AM CDT 8:33 PM CDT
Nautical Twilight 5:25 AM CDT 9:07 PM CDT
Astronomical Twilight 4:48 AM CDT 9:44 PM CDT
Moon 11:54 PM CDT (8/16) 1:09 PM CDT (8/16)
Length of Visible Light 14h 34m
Length of Day
13h 38m
Waning Gibbous, 58% of the Moon is Illuminated
Aug 16
Waning Gibbous
Aug 17
Last Quarter
Aug 25
New
Sep 2
First Quarter
Sep 8
Full

Hourly Weather History & Observations

Time (CDT) Temp. Heat Index Dew Point Humidity Pressure Visibility Wind Dir Wind Speed Gust Speed Precip Events Conditions
12:53 AM 73.9 °F - 68.0 °F 82% 29.87 in 10.0 mi SSE 8.1 mph - 0.00 in   Overcast
1:53 AM 75.0 °F - 66.9 °F 76% 29.87 in 9.0 mi SSW 10.4 mph - 0.00 in   Mostly Cloudy
2:10 AM 73.9 °F - 69.1 °F 85% 29.89 in 1.8 mi SSW 12.7 mph - 0.05 in Rain Rain
2:19 AM 73.0 °F - 69.1 °F 87% 29.88 in 3.0 mi South 12.7 mph - 0.06 in Rain Light Rain
2:53 AM 73.0 °F - 69.1 °F 87% 29.84 in 4.0 mi SSE 9.2 mph - 0.08 in Rain Light Rain
3:53 AM 72.0 °F - 69.1 °F 91% 29.83 in 6.0 mi South 13.8 mph - 0.01 in   Overcast
4:53 AM 72.0 °F - 68.0 °F 87% 29.82 in 7.0 mi South 17.3 mph - N/A   Overcast
5:24 AM 73.0 °F - 68.0 °F 84% 29.89 in 7.0 mi NW 13.8 mph 25.3 mph 0.00 in Thunderstorm Overcast
5:31 AM 73.0 °F - 68.0 °F 84% 29.90 in 6.0 mi NW 8.1 mph 19.6 mph 0.00 in Thunderstorm Unknown
5:39 AM 73.0 °F - 69.1 °F 87% 29.91 in 5.0 mi NNW 9.2 mph - 0.01 in Rain , Thunderstorm Light Thunderstorms and Rain
5:44 AM 73.0 °F - 68.0 °F 84% 29.91 in 1.8 mi West 18.4 mph 27.6 mph 0.12 in Rain , Thunderstorm Heavy Thunderstorms and Rain
5:46 AM 73.9 °F - 66.9 °F 79% 29.89 in 1.0 mi SSW 29.9 mph 48.3 mph 0.24 in Rain , Thunderstorm Heavy Thunderstorms and Rain
5:53 AM 73.0 °F - 66.9 °F 81% 29.83 in 0.5 mi South 18.4 mph 48.3 mph 0.45 in Rain , Thunderstorm Heavy Thunderstorms and Rain
5:58 AM 73.9 °F - 66.0 °F 76% 29.85 in 1.2 mi South 31.1 mph 39.1 mph 0.00 in Rain , Thunderstorm Light Thunderstorms and Rain
6:00 AM 75.0 °F - 66.0 °F 73% 29.85 in 2.5 mi South 29.9 mph 39.1 mph 0.00 in Rain , Thunderstorm Light Thunderstorms and Rain
6:22 AM 72.0 °F - 66.9 °F 84% 29.87 in 4.0 mi South 16.1 mph 25.3 mph 0.04 in Rain , Thunderstorm Light Rain
6:29 AM 72.0 °F - 68.0 °F 87% 29.87 in 8.0 mi South 16.1 mph 25.3 mph 0.04 in   Overcast
6:53 AM 71.1 °F - 68.0 °F 90% 29.85 in 7.0 mi South 15.0 mph 23.0 mph 0.05 in   Overcast
7:15 AM 71.1 °F - 68.0 °F 90% 29.87 in 2.5 mi South 13.8 mph - 0.00 in Rain Light Rain
7:24 AM 71.1 °F - 68.0 °F 90% 29.87 in 4.0 mi South 15.0 mph - 0.00 in Rain Light Rain
7:53 AM 72.0 °F - 68.0 °F 87% 29.85 in 5.0 mi South 15.0 mph - 0.00 in   Clear
8:53 AM 73.9 °F - 68.0 °F 82% 29.85 in 7.0 mi South 12.7 mph - 0.01 in   Clear
9:53 AM 75.9 °F - 68.0 °F 76% 29.84 in 7.0 mi South 15.0 mph - N/A   Mostly Cloudy
10:53 AM 79.0 °F - 69.1 °F 72% 29.85 in 7.0 mi SSW 16.1 mph 26.5 mph N/A   Partly Cloudy
11:53 AM 81.0 °F 84.4 °F 70.0 °F 69% 29.83 in 6.0 mi SW 16.1 mph 26.5 mph N/A   Haze
12:03 PM 82.0 °F 86.3 °F 71.1 °F 69% 29.85 in 6.0 mi SW 16.1 mph 24.2 mph N/A   Haze
12:30 PM 82.0 °F 86.3 °F 71.1 °F 69% 29.85 in 6.0 mi SW 13.8 mph 19.6 mph N/A   Haze
12:53 PM 84.0 °F 89.6 °F 72.0 °F 67% 29.83 in 6.0 mi SW 15.0 mph 21.9 mph N/A   Haze
1:53 PM 82.0 °F 86.3 °F 71.1 °F 69% 29.83 in 6.0 mi WSW 5.8 mph 17.3 mph N/A   Haze
2:53 PM 84.9 °F 91.4 °F 73.0 °F 67% 29.82 in 5.0 mi SW 10.4 mph 18.4 mph N/A   Haze
3:53 PM 84.0 °F 89.6 °F 72.0 °F 67% 29.81 in 6.0 mi SW 10.4 mph - N/A   Haze
4:39 PM 82.0 °F 87.9 °F 73.9 °F 76% 29.84 in 5.0 mi NW 6.9 mph - 0.00 in Rain , Thunderstorm Light Rain
4:53 PM 84.9 °F 93.3 °F 75.0 °F 72% 29.81 in 5.0 mi NW 9.2 mph - 0.00 in Thunderstorm Haze
5:01 PM 84.0 °F 91.2 °F 73.9 °F 72% 29.83 in 5.0 mi NW 9.2 mph - N/A   Haze
5:27 PM 81.0 °F 85.8 °F 73.0 °F 77% 29.84 in 5.0 mi North 10.4 mph - N/A   Haze
5:53 PM 81.0 °F 84.9 °F 71.1 °F 72% 29.81 in 5.0 mi NW 11.5 mph - N/A   Haze
6:20 PM 80.1 °F 83.6 °F 71.1 °F 74% 29.84 in 7.0 mi NNW 11.5 mph - N/A   Mostly Cloudy
6:53 PM 79.0 °F - 70.0 °F 74% 29.82 in 10.0 mi NNW 12.7 mph - N/A   Overcast
7:07 PM 78.1 °F - 69.1 °F 74% 29.84 in 10.0 mi NW 11.5 mph - N/A   Mostly Cloudy
7:53 PM 77.0 °F - 69.1 °F 76% 29.83 in 10.0 mi NW 8.1 mph - N/A   Overcast
8:53 PM 73.0 °F - 69.1 °F 87% 29.84 in 10.0 mi NNW 5.8 mph - N/A   Partly Cloudy
9:53 PM 72.0 °F - 68.0 °F 87% 29.84 in 10.0 mi NW 4.6 mph - N/A   Clear
10:29 PM 71.1 °F - 68.0 °F 90% 29.89 in 10.0 mi NW 3.5 mph - N/A   Mostly Cloudy
10:53 PM 72.0 °F - 68.0 °F 87% 29.86 in 9.0 mi Calm Calm - N/A   Overcast
11:02 PM 72.0 °F - 68.0 °F 87% 29.89 in 10.0 mi Calm Calm - N/A   Overcast
11:53 PM 72.0 °F - 69.1 °F 91% 29.87 in 10.0 mi WNW 5.8 mph - N/A   Overcast